Tracking 27107 objects as of 21-Mar-2023
HD Live streaming from Space Station
objects crossing your sky now

SL-8 DEB

Track SL-8 DEB now!
10-day predictions


NORAD ID: 39701
Int'l Code: 1991-009DQ
Perigee: 1,474.4 km
Apogee: 1,684.6 km
Inclination: 74.0 °
Period: 117.6 minutes
Semi major axis: 7950 km
RCS: 0.0255 m2 (small)
Launch date: February 12, 1991
Source: Commonwealth of Independent States (former USSR) (CIS)
Launch site: PLESETSK MISSILE AND SPACE COMPLEX (PKMTR)

Note: This is SATELLITE DEBRIS
Your satellite tracking list
Your tracking list is empty




NASA's NSSDC Master Catalog

Two Line Element Set (TLE):
1 39701U 91009DQ  23067.80305576  .00000106  00000-0  10669-2 0  9992
2 39701  73.9840  88.5602 0132184 113.9961  59.1164 12.24653959416026
Source of the keplerian elements: AFSPC